• In Czech Republic
  • List of Countries
  • For 7 days
  • Water Temperature
  • Satellite Maps
  • Weather Map
  • Weather Widgets
  • user-avatar
    Login

    Hourly Weather Nevşehir

    Today, 14 December, Thursday

    Time Temperature Precipitation Wind Pressure Humidity
    00:00 +4°C° 0 mm 1 mps 656 mmHg 60%
    01:00 +4°C° 0 mm 1 mps 656 mmHg 62%
    02:00 +4°C° 0 mm 1 mps 656 mmHg 67%
    03:00 +4°C° 0 mm 1 mps 656 mmHg 67%
    04:00 +3°C° 0 mm 1 mps 656 mmHg 68%
    05:00 +3°C° 0 mm 1 mps 656 mmHg 69%
    06:00 +4°C° 0 mm 1 mps 656 mmHg 65%
    07:00 +5°C° 0 mm 1 mps 656 mmHg 61%
    08:00 +5°C° 0 mm 1 mps 656 mmHg 57%
    09:00 +6°C° 0 mm 2 mps 657 mmHg 51%
    10:00 +8°C° 0 mm 2 mps 657 mmHg 45%
    11:00 +10°C° 0 mm 2 mps 657 mmHg 39%
    12:00 +12°C° 0 mm 1 mps 657 mmHg 38%
    13:00 +12°C° 0 mm 1 mps 657 mmHg 36%
    14:00 +13°C° 0 mm 1 mps 657 mmHg 34%
    15:00 +11°C° 0 mm 1 mps 656 mmHg 38%
    16:00 +9°C° 0 mm 1 mps 656 mmHg 42%
    17:00 +7°C° 0 mm 1 mps 655 mmHg 46%
    18:00 +7°C° 0 mm 1 mps 655 mmHg 47%
    19:00 +6°C° 0 mm 1 mps 655 mmHg 48%
    20:00 +6°C° 0 mm 1 mps 655 mmHg 49%
    21:00 +6°C° 0 mm 1 mps 655 mmHg 49%
    22:00 +5°C° 0 mm 1 mps 655 mmHg 49%
    23:00 +5°C° 0 mm 1 mps 655 mmHg 50%

    Tomorrow, 15 December, Friday

    Time Temperature Precipitation Wind Pressure Humidity
    00:00 +4°C° 0 mm 1 mps 655 mmHg 51%
    01:00 +4°C° 0 mm 1 mps 655 mmHg 52%
    02:00 +4°C° 0 mm 1 mps 655 mmHg 53%
    03:00 +4°C° 0 mm 1 mps 655 mmHg 53%
    04:00 +3°C° 0 mm 1 mps 655 mmHg 53%
    05:00 +3°C° 0 mm 1 mps 655 mmHg 54%
    06:00 +4°C° 0 mm 1 mps 656 mmHg 51%
    07:00 +4°C° 0 mm 1 mps 656 mmHg 49%
    08:00 +5°C° 0 mm 1 mps 657 mmHg 46%
    09:00 +7°C° 0 mm 1 mps 658 mmHg 41%
    10:00 +9°C° 0 mm 1 mps 658 mmHg 35%
    11:00 +11°C° 0 mm 1 mps 659 mmHg 29%
    12:00 +12°C° 0 mm 1 mps 659 mmHg 29%
    13:00 +12°C° 0 mm 1 mps 659 mmHg 29%
    14:00 +12°C° 0 mm 1 mps 659 mmHg 29%
    15:00 +10°C° 0 mm 1 mps 658 mmHg 34%
    16:00 +7°C° 0 mm 0 mps 658 mmHg 38%
    17:00 +5°C° 0 mm 0 mps 657 mmHg 43%
    18:00 +6°C° 0 mm 1 mps 657 mmHg 43%
    19:00 +6°C° 0 mm 1 mps 657 mmHg 44%
    20:00 +5°C° 0 mm 1 mps 658 mmHg 44%
    21:00 +5°C° 0 mm 1 mps 658 mmHg 44%
    22:00 +5°C° 0 mm 1 mps 658 mmHg 45%
    23:00 +4°C° 0 mm 2 mps 658 mmHg 45%

    Day after tomorrow, 16 December, Saturday

    Time Temperature Precipitation Wind Pressure Humidity
    00:00 +4°C° 0 mm 2 mps 658 mmHg 48%
    01:00 +4°C° 0 mm 2 mps 658 mmHg 50%
    02:00 +4°C° 0 mm 2 mps 658 mmHg 53%
    03:00 +4°C° 0 mm 2 mps 658 mmHg 55%
    04:00 +3°C° 0 mm 2 mps 658 mmHg 58%
    05:00 +3°C° 0 mm 2 mps 658 mmHg 60%
    06:00 +4°C° 0 mm 2 mps 658 mmHg 60%
    07:00 +4°C° 0 mm 2 mps 659 mmHg 59%
    08:00 +5°C° 0 mm 2 mps 659 mmHg 58%
    09:00 +7°C° 0 mm 2 mps 659 mmHg 52%
    10:00 +9°C° 0 mm 2 mps 660 mmHg 46%
    11:00 +12°C° 0 mm 2 mps 660 mmHg 40%
    12:00 +13°C° 0 mm 2 mps 660 mmHg 39%
    13:00 +13°C° 0 mm 2 mps 660 mmHg 39%
    14:00 +14°C° 0 mm 2 mps 660 mmHg 38%
    15:00 +12°C° 0 mm 2 mps 659 mmHg 45%
    16:00 +10°C° 0 mm 2 mps 659 mmHg 52%
    17:00 +8°C° 0 mm 2 mps 658 mmHg 59%
    18:00 +8°C° 0 mm 2 mps 658 mmHg 62%
    19:00 +8°C° 0 mm 2 mps 659 mmHg 65%
    20:00 +7°C° 0 mm 2 mps 659 mmHg 68%
    21:00 +7°C° 0 mm 3 mps 658 mmHg 71%
    22:00 +5°C° 0 mm 3 mps 658 mmHg 74%
    23:00 +5°C° 0 mm 3 mps 658 mmHg 77%

    17 December, Sunday

    Time Temperature Precipitation Wind Pressure Humidity
    00:00 +5°C° 0 mm 3 mps 658 mmHg 78%
    01:00 +4°C° 0 mm 3 mps 658 mmHg 79%
    02:00 +4°C° 0 mm 3 mps 659 mmHg 80%
    03:00 +5°C° 0 mm 3 mps 659 mmHg 80%
    04:00 +5°C° 0 mm 3 mps 658 mmHg 80%
    05:00 +5°C° 0 mm 3 mps 658 mmHg 80%
    06:00 +5°C° 0 mm 3 mps 658 mmHg 80%
    07:00 +5°C° 0 mm 3 mps 658 mmHg 79%
    08:00 +5°C° 0 mm 3 mps 658 mmHg 79%
    09:00 +7°C° 0 mm 4 mps 659 mmHg 71%
    10:00 +10°C° 0 mm 4 mps 659 mmHg 63%
    11:00 +12°C° 0 mm 5 mps 659 mmHg 55%
    12:00 +13°C° 0 mm 5 mps 659 mmHg 53%
    13:00 +13°C° 0 mm 5 mps 659 mmHg 50%
    14:00 +14°C° 0 mm 5 mps 659 mmHg 48%
    15:00 +12°C° 0 mm 5 mps 658 mmHg 54%
    16:00 +11°C° 0 mm 4 mps 658 mmHg 60%
    17:00 +10°C° 0 mm 4 mps 658 mmHg 65%
    18:00 +9°C° 0 mm 3 mps 658 mmHg 68%
    19:00 +9°C° 0 mm 3 mps 658 mmHg 71%
    20:00 +8°C° 0 mm 3 mps 658 mmHg 73%
    21:00 +7°C° 0 mm 3 mps 658 mmHg 75%
    22:00 +7°C° 0 mm 3 mps 658 mmHg 76%
    23:00 +7°C° 0 mm 3 mps 658 mmHg 78%

    18 December, Monday

    Time Temperature Precipitation Wind Pressure Humidity
    00:00 +5°C° 0 mm 3 mps 658 mmHg 79%
    01:00 +5°C° 0 mm 3 mps 658 mmHg 79%
    02:00 +5°C° 0 mm 3 mps 658 mmHg 80%
    03:00 +5°C° 0 mm 3 mps 658 mmHg 80%
    04:00 +5°C° 0 mm 3 mps 658 mmHg 81%
    05:00 +4°C° 0 mm 3 mps 658 mmHg 81%
    06:00 +5°C° 0 mm 3 mps 658 mmHg 80%
    07:00 +5°C° 0 mm 3 mps 658 mmHg 79%
    08:00 +5°C° 0 mm 3 mps 658 mmHg 78%
    09:00 +7°C° 0 mm 4 mps 658 mmHg 70%
    10:00 +9°C° 0 mm 5 mps 658 mmHg 63%
    11:00 +10°C° 0 mm 6 mps 659 mmHg 55%
    12:00 +11°C° 0 mm 6 mps 658 mmHg 53%
    13:00 +11°C° 0 mm 7 mps 658 mmHg 52%
    14:00 +11°C° 0 mm 7 mps 658 mmHg 51%
    15:00 +10°C° 0.2 mm 6 mps 657 mmHg 57%
    16:00 +9°C° 0.2 mm 5 mps 657 mmHg 62%
    17:00 +8°C° 0.2 mm 4 mps 657 mmHg 68%
    18:00 +8°C° 0.1 mm 4 mps 657 mmHg 71%
    19:00 +7°C° 0.1 mm 4 mps 657 mmHg 73%
    20:00 +6°C° 0.1 mm 4 mps 656 mmHg 76%
    21:00 +6°C° 0.4 mm 4 mps 656 mmHg 78%
    22:00 +6°C° 0.4 mm 4 mps 656 mmHg 79%
    23:00 +6°C° 0.4 mm 4 mps 656 mmHg 81%

    19 December, Tuesday

    Time Temperature Precipitation Wind Pressure Humidity
    00:00 +5°C° 0.8 mm 3 mps 656 mmHg 83%
    01:00 +5°C° 0.8 mm 3 mps 656 mmHg 84%
    02:00 +6°C° 0.8 mm 2 mps 656 mmHg 86%
    03:00 +5°C° 0.9 mm 2 mps 656 mmHg 86%
    04:00 +5°C° 0.9 mm 2 mps 656 mmHg 87%
    05:00 +5°C° 0.9 mm 2 mps 656 mmHg 88%
    06:00 +5°C° 0.7 mm 2 mps 657 mmHg 88%
    07:00 +5°C° 0.7 mm 2 mps 657 mmHg 88%
    08:00 +4°C° 0.7 mm 2 mps 657 mmHg 88%
    09:00 +5°C° 0.3 mm 2 mps 658 mmHg 85%
    10:00 +5°C° 0.3 mm 2 mps 658 mmHg 82%
    11:00 +5°C° 0.3 mm 2 mps 658 mmHg 79%
    12:00 +6°C° 0.1 mm 2 mps 658 mmHg 77%
    13:00 +6°C° 0.1 mm 2 mps 657 mmHg 74%
    14:00 +7°C° 0.1 mm 2 mps 657 mmHg 72%
    15:00 +6°C° 0.1 mm 2 mps 657 mmHg 75%
    16:00 +5°C° 0.1 mm 2 mps 657 mmHg 77%
    17:00 +5°C° 0.1 mm 2 mps 657 mmHg 80%
    18:00 +5°C° 0 mm 2 mps 657 mmHg 81%
    19:00 +5°C° 0 mm 2 mps 657 mmHg 82%
    20:00 +5°C° 0 mm 2 mps 657 mmHg 83%
    21:00 +4°C° 0 mm 2 mps 657 mmHg 84%
    22:00 +5°C° 0 mm 1 mps 657 mmHg 84%
    23:00 +5°C° 0 mm 1 mps 657 mmHg 85%
    Show more